960  
ASUS43 KIWX 161210  
RWRIWX  
 
KIWX WEATHER ROUNDUP  
NATIONAL WEATHER SERVICE NORTHERN INDIANA  
800 AM EDT TUE OCT 16 2018  
 
NOTE: "FAIR" INDICATES FEW OR NO CLOUDS BELOW 12,000 FEET WITH NO  
SIGNIFICANT WEATHER AND/OR S TO VISIBILITY
.  
 
* THESE STATIONS ARE NOT UNDER NWS QUALITY CONTROL. THEY ALSO MAY NOT  
REPORT WEATHER SUCH AS PRECIPITATION OR FOG.
 
 
INZ001>027-161300-  
NORTHERN INDIANA  
 
CITY SKY/WX TMP DP RH WIND PRES REMARKS
 
GARY* CLEAR 36 32 87 SW5 30.25S  
VALPARAISO FAIR 32 26 78 SW5 30.24F WCI 27  
6HR MIN TEMP: 32; 6HR MAX TEMP: 35;  
 
MICHIGAN CITY* FAIR 32 28 86 S5 30.24S WCI 27  
LAPORTE* FAIR 31 29 92 SW5 30.23F WCI 26  
6HR MIN TEMP: 29; 6HR MAX TEMP: 33;  
 
KNOX* FAIR 30 28 93 SW5 30.24F WCI 25  
SOUTH BEND FAIR 32 28 85 SW9 30.23F WCI 24  
6HR MIN TEMP: 31; 6HR MAX TEMP: 33;  
 
ELKHART* FAIR 32 28 86 SW7 30.22F WCI 26  
GOSHEN FAIR 32 30 92 SW7 30.22F WCI 26  
6HR MIN TEMP: 31; 6HR MAX TEMP: 34;  
 
MONTICELLO* FAIR 31 29 95 SW5 30.26F WCI 26  
6HR MIN TEMP: 31; 6HR MAX TEMP: 33;  
 
LOGANSPORT* FAIR 30 30 100 SW5 30.28S WCI 25  
ROCHESTER* FAIR 34 30 86 SW6 30.26S WCI 29  
WARSAW* FAIR 32 30 93 SW5 30.24F WCI 27  
KENDALLVILLE* FAIR 32 28 84 SW8 30.23S WCI 25  
AUBURN* FAIR 32 32 100 SW5 30.24F WCI 27  
FORT WAYNE FAIR 31 30 96 SW7 30.26F WCI 24  
6HR MIN TEMP: 30; 6HR MAX TEMP: 36;  
 
HUNTINGTON* FAIR 32 31 95 S5 30.26F WCI 28  
6HR MIN TEMP: 32; 6HR MAX TEMP: 35;  
 
PERU/GRISSOM FAIR 29 29 99 SW7 30.25F WCI 22  
6HR MIN TEMP: 29; 6HR MAX TEMP: 34;  
 

 
INZ028>050-161300-  
CENTRAL INDIANA  
 
CITY SKY/WX TMP DP RH WIND PRES REMARKS
 
LAFAYETTE FAIR 29 29 100 CALM 30.28F  
6HR MIN TEMP: 28; 6HR MAX TEMP: 34;  
 
KOKOMO* FAIR 29 27 92 CALM 30.28F  
6HR MIN TEMP: 29; 6HR MAX TEMP: 34;  
 
MUNCIE* FAIR 35 31 85 SW5 30.27F WCI 31  
6HR MIN TEMP: 35; 6HR MAX TEMP: 39;  
 
INDIANAPOLIS FAIR 34 32 92 W5 30.28F WCI 30  
6HR MIN TEMP: 33; 6HR MAX TEMP: 38;  
 

 
MIZ043>046-050>051-056>058-064>065-071>073-077>080-161300-  
SOUTHWEST LOWER MICHIGAN  
 
CITY SKY/WX TMP DP RH WIND PRES REMARKS
 
BATTLE CREEK FAIR 33 30 88 SW10 30.18S WCI 25  
6HR MIN TEMP: 33; 6HR MAX TEMP: 38;  
 
BENTON HARBOR FAIR 38 32 79 S10 30.19F  
6HR MIN TEMP: 38; 6HR MAX TEMP: 46;  
 
COLDWATER* FAIR 34 31 89 SW6 30.20F WCI 29  
6HR MIN TEMP: 33; 6HR MAX TEMP: 36;  
 
HILLSDALE* FAIR 32 30 93 SW5 30.19F WCI 27  
HOLLAND LGT RAIN 46 31 55 W18G26 30.14F  
6HR MIN TEMP: 44; 6HR MAX TEMP: 46; 6HR PCP: TRACE;  
 
GRAND RAPIDS FAIR 39 33 79 S12 30.13F  
6HR MIN TEMP: 37; 6HR MAX TEMP: 40;  
 
KALAMAZOO FAIR 35 31 85 SW9 30.19S WCI 28  
6HR MIN TEMP: 32; 6HR MAX TEMP: 38;  
 
STURGIS* FAIR 33 29 85 SW5 30.21S WCI 29  
6HR MIN TEMP: 32; 6HR MAX TEMP: 36;  
 
THREE RIVERS* FAIR 33 31 92 SW6 30.22S WCI 27  
6HR MIN TEMP: 32; 6HR MAX TEMP: 34;  
 

 
OHZ001>008-015>018-024>025-161300-  
NORTHWEST OHIO  
 
CITY SKY/WX TMP DP RH WIND PRES REMARKS
 
WAUSEON* FAIR 32 32 100 SW8 30.22F WCI 25  
DEFIANCE FAIR 30 27 88 SW3 30.24F  
6HR MIN TEMP: 30; 6HR MAX TEMP: 34;  
 
FINDLAY FAIR 35 31 85 SW6 30.24F WCI 30  
6HR MIN TEMP: 32; 6HR MAX TEMP: 35;  
 
OTTAWA* FAIR 32 30 93 SW7 30.27F WCI 26  
TOLEDO EXPRESS FAIR 34 29 82 SW7 30.23S WCI 28  
6HR MIN TEMP: 34; 6HR MAX TEMP: 37;  
 
LIMA FAIR 34 31 88 SW6 30.26F WCI 29  
6HR MIN TEMP: 34; 6HR MAX TEMP: 37;  
 

 
AND FOR LAKE MICHIGAN COASTAL AND OPEN LAKE BUOY OBSERVATIONS  
 
STATION/POSITION TEMP WIND PRES VSBY WAVE
 
AIR SEA DIR/SP/G HT/PER  
(F) (DEG/KT/KT) (MB) (MI) (FT/S)  
CALUMET HARBOR 36 200/ 8/ 10 1022.8F  
MICHIGAN CITY 36 180/ 12/ 15 N/A  
BURNS HARBOR 35 190/ 7/ 9 1024.0S  
SAINT JOSEPH 48 220/ 23/ 28 1022.0  
SOUTH LAKE BUOY 47 59 240/ 23/ 29 1020.9F 5/ 5  
4 MI NW BRIDGMAN 47 60 250/ 19/ 25 1023.3 4/ 4  
MICHIGAN CITY 41 59 240/ 17/ 21 N/A 3/ 3  
 

 

 
 
 
CLICK HERE TO GO TO PREVIOUS BULLETINS.

The Nexlab IN Page
The Nexlab OH Page
The Nexlab MI Page Main Text Page